Flag for U.S.A. Weather past 2 weeks in Jacksonville, North Carolina, U.S.A.

Now
77 °F

Clear.


Feels Like: 79 °F
Forecast: 73 / 86 °F
Wind: 8 mph from West

Location: Jacksonville - New River

Current Time: Jul 5, 2015 at 5:29:18 AM

Latest Report: Jul 5, 2015 at 4:56 AM


Visibility: 10 mi

Pressure: 30.08 "Hg

Humidity: 74%

Dew point: 68 °F

Location of JacksonvilleLocation

Historic Weather in Jacksonville — Graph

°F

Jacksonville temperature yesterday

Maximum temperature yesterday: 90 °F (at 3:56 PM)
Minimum temperature yesterday: 78 °F (at 11:56 PM)
Average temperature yesterday: 84 °F

Past Weeks' High & Low Weather Summary

 TemperatureHumidityPressure
High93 °F (Jun 21, 2:56 PM)94% (Jun 20, 3:56 AM)30.09 "Hg (Jun 20, 3:56 AM)
Low71 °F (Jun 29, 5:56 AM)43% (Jun 30, 12:56 PM)29.78 "Hg (Jun 27, 6:56 PM)
Average81 °F74%29.97 "Hg
* Reported Jun 20 3:56 AM — Jul 5 3:56 AM, Jacksonville, Weather by CustomWeather, © 2015

Note: Actual official high and low records may vary slightly from our data, if they occured in-between our weather recording intervals... More about our weather records

Advertising

Jacksonville weather history for previous 24 hours

 ConditionsComfort  
Time TempWeatherWind HumidityBarometerVisibility
3:56 AM
Sun, Jul 5
78 °FClear.9 mph74%30.08 "Hg10 mi
2:56 AM78 °FClear.9 mph79%30.07 "Hg10 mi
1:56 AM77 °FClear.5 mph85%30.06 "Hg10 mi
11:56 PM
Sat, Jul 4
78 °FClear.5 mph82%30.06 "Hg10 mi
10:56 PM79 °FClear.5 mph77%30.05 "Hg10 mi
9:56 PM81 °FClear.7 mph72%30.05 "Hg10 mi
8:56 PM82 °FSunny.5 mph72%30.03 "Hg10 mi
7:56 PM83 °FSunny.7 mph70%30.01 "Hg10 mi
6:56 PM85 °FSunny.5 mph55%30.00 "Hg10 mi
5:56 PM89 °FSunny.13 mph46%30.00 "Hg10 mi
4:56 PM89 °FSunny.18 mph46%30.00 "Hg10 mi
3:56 PM90 °FSunny.12 mph47%30.01 "Hg10 mi
2:56 PM89 °FSunny.18 mph46%30.00 "Hg10 mi
1:56 PM88 °FSunny.18 mph48%30.01 "Hg10 mi
12:56 PM86 °FSunny.13 mph53%30.01 "Hg10 mi
11:56 AM82 °FSunny.14 mph63%30.02 "Hg10 mi
10:56 AM83 °FSunny.12 mph63%30.00 "Hg10 mi
9:56 AM81 °FSunny.14 mph62%30.01 "Hg10 mi
Weather by CustomWeather, © 2015

See weather overviewHow to use our weather pages